Weather History for Weslaco, TX

Change the Weather History Date:

Monday, February 24, 2014

  Actual Average (KMFE) Record (KMFE)
Temperature  
Mean Temperature 72 °F 66 °F  
Max Temperature 77 °F 77 °F 97 °F (2011)
Min Temperature 68 °F 56 °F 32 °F (1905)
Degree Days  
Heating Degree Days 0 3  
Month to date heating degree days 97  
Since 1 July heating degree days 524  
Cooling Degree Days 8 4  
Month to date cooling degree days 78  
Year to date cooling degree days 140  
Growing Degree Days 22 (Base 50)    
Moisture  
Dew Point 68 °F    
Average Humidity 88    
Maximum Humidity 92    
Minimum Humidity 74    
Precipitation  
Precipitation 0.12 in 0.03 in 0.33 in (1970)
Month to date precipitation 0.97  
Year to date precipitation 2.02  
Sea Level Pressure  
Sea Level Pressure 29.97 in    
Wind  
Wind Speed 3 mph (ESE)    
Max Wind Speed 12 mph    
Max Gust Speed 21 mph    
Visibility 4 miles    
Events Fog , Rain , Thunderstorm    
T = Trace of Precipitation, MM = Missing Value Source: NWS Daily Summary

Daily Weather History Graph

Daily Weather History Graph

Search for Another Location

Airport:

Trip Planner

Search our weather history database for the weather conditions in past years. The results will help you decide how hot, cold, wet, or windy it might be!

Date:

Astronomy

Feb. 24, 2014 Rise Set
Actual Time 6:59 AM CST 6:30 PM CST
Civil Twilight 6:36 AM CST 6:53 PM CST
Nautical Twilight 6:09 AM CST 7:20 PM CST
Astronomical Twilight 5:42 AM CST 7:47 PM CST
Moon 2:42 AM CST (2/24) 1:49 PM CST (2/24)
Length of Visible Light 12h 17m
Length of Day
11h 30m
Waning Crescent, 28% of the Moon is Illuminated
Feb 24
Waning Crescent
Mar 1
New
Mar 8
First Quarter
Mar 16
Full
Mar 23
Last Quarter

Hourly Weather History & Observations

Time (CST) Temp. Dew Point Humidity Pressure Visibility Wind Dir Wind Speed Gust Speed Precip Events Conditions
12:15 AM 68.9 °F 66.2 °F 91% 29.96 in 0.2 mi East 3.5 mph - N/A Fog Fog
12:35 AM 69.1 °F 66.7 °F 92% 29.95 in 0.2 mi East 3.5 mph - N/A Fog Fog
12:55 AM 69.8 °F 67.3 °F 92% 29.95 in 0.2 mi ESE 3.5 mph - N/A Fog Fog
1:15 AM 69.8 °F 67.3 °F 92% 29.95 in 0.2 mi Calm Calm - N/A Fog Fog
1:35 AM 69.8 °F 67.5 °F 92% 29.95 in 0.8 mi East 3.5 mph - N/A   Overcast
1:55 AM 69.8 °F 67.5 °F 92% 29.94 in 1.8 mi East 3.5 mph - N/A   Overcast
2:15 AM 69.8 °F 67.5 °F 92% 29.94 in 2.5 mi Calm Calm - N/A   Overcast
2:35 AM 70.0 °F 67.6 °F 92% 29.95 in 2.5 mi Calm Calm - N/A   Overcast
2:55 AM 70.2 °F 67.6 °F 92% 29.94 in 3.0 mi Calm Calm - N/A   Overcast
3:15 AM 70.3 °F 67.6 °F 91% 29.93 in 3.0 mi Calm Calm - N/A   Overcast
3:35 AM 70.3 °F 67.6 °F 91% 29.93 in 3.0 mi Calm Calm - N/A   Overcast
4:00 AM 70.3 °F 67.5 °F 91% 29.94 in 3.0 mi Calm Calm - N/A   Overcast
4:15 AM 70.3 °F 67.3 °F 90% 29.93 in 4.0 mi Calm Calm - N/A   Overcast
4:35 AM 70.0 °F 67.3 °F 91% 29.94 in 3.0 mi Calm Calm - N/A   Mostly Cloudy
4:55 AM 70.0 °F 67.3 °F 91% 29.94 in 2.5 mi Calm Calm - N/A   Overcast
5:15 AM 70.0 °F 67.3 °F 91% 29.95 in 2.5 mi Calm Calm - N/A   Overcast
5:35 AM 70.2 °F 67.5 °F 91% 29.95 in 2.5 mi Calm Calm - N/A   Overcast
5:55 AM 70.2 °F 67.5 °F 91% 29.95 in 2.5 mi Calm Calm - N/A   Overcast
6:15 AM 70.0 °F 67.3 °F 91% 29.96 in 2.5 mi Calm Calm - N/A   Overcast
6:35 AM 70.2 °F 67.5 °F 91% 29.97 in 3.0 mi Calm Calm - N/A   Overcast
6:55 AM 70.3 °F 67.5 °F 91% 29.98 in 3.0 mi Calm Calm - N/A   Overcast
7:15 AM 70.3 °F 67.6 °F 91% 29.98 in 3.0 mi NE 4.6 mph - N/A   Overcast
7:35 AM 70.7 °F 67.6 °F 90% 29.98 in 3.0 mi ENE 3.5 mph - N/A   Overcast
7:55 AM 70.7 °F 67.8 °F 91% 29.98 in 2.0 mi NE 4.6 mph - N/A   Overcast
8:15 AM 70.9 °F 68.2 °F 91% 29.99 in 1.5 mi East 5.8 mph - N/A   Overcast
8:35 AM 71.1 °F 68.4 °F 91% 30.00 in 4.0 mi ENE 5.8 mph - N/A   Overcast
8:55 AM 71.1 °F 68.4 °F 91% 29.99 in 1.5 mi East 6.9 mph - N/A   Overcast
9:15 AM 71.2 °F 68.7 °F 92% 29.98 in 4.0 mi ESE 11.5 mph 20.7 mph N/A Rain Rain
9:35 AM 71.6 °F 68.9 °F 91% 30.02 in 4.0 mi East 5.8 mph - N/A   Light Drizzle
9:55 AM 72.0 °F 69.1 °F 91% 30.03 in 5.0 mi SE 5.8 mph - N/A   Drizzle
10:15 AM 72.1 °F 69.1 °F 90% 30.04 in 4.0 mi SSE 4.6 mph - N/A Rain Rain
10:35 AM 72.0 °F 68.9 °F 90% 30.04 in 4.0 mi Calm Calm - N/A Rain , Thunderstorm Light Thunderstorms and Rain
10:55 AM 72.0 °F 68.9 °F 90% 30.01 in 4.0 mi ESE 11.5 mph - 0.01 in   Overcast
11:15 AM 72.3 °F 69.3 °F 90% 30.03 in 3.0 mi Calm Calm - N/A Rain , Thunderstorm Light Thunderstorms and Rain
11:35 AM 73.4 °F 69.4 °F 87% 30.04 in 4.0 mi Calm Calm - N/A   Light Drizzle
11:55 AM 74.5 °F 69.6 °F 85% 30.03 in 4.0 mi Calm Calm - N/A Thunderstorm Haze
12:15 PM 73.4 °F 69.6 °F 88% 30.03 in 4.0 mi NE 3.5 mph - N/A   Overcast
12:35 PM 73.4 °F 69.6 °F 88% 30.02 in 4.0 mi ENE 5.8 mph - N/A   Overcast
12:55 PM 73.6 °F 69.8 °F 88% 30.01 in 4.0 mi NE 3.5 mph - N/A Rain , Thunderstorm Light Thunderstorms and Rain
1:15 PM 74.8 °F 70.9 °F 87% 30.00 in 4.0 mi NE 5.8 mph - 0.02 in Rain , Thunderstorm Light Thunderstorms and Rain
1:35 PM 74.3 °F 70.5 °F 88% 29.99 in 4.0 mi NE 6.9 mph - 0.02 in Thunderstorm Overcast
1:55 PM 74.7 °F 70.3 °F 86% 29.98 in 4.0 mi ENE 4.6 mph - 0.02 in Thunderstorm Haze
2:15 PM 73.4 °F 68.9 °F 86% 29.98 in 7.0 mi ESE 4.6 mph - N/A Rain , Thunderstorm Rain
2:35 PM 71.6 °F 66.0 °F 82% 29.97 in 7.0 mi SE 5.8 mph - N/A   Drizzle
2:55 PM 70.7 °F 64.8 °F 81% 29.97 in 7.0 mi Calm Calm - 0.03 in Rain Light Rain
3:15 PM 70.9 °F 64.4 °F 80% 29.97 in 5.0 mi Calm Calm - 0.03 in Rain Rain
3:35 PM 70.9 °F 66.4 °F 86% 29.96 in 5.0 mi North 3.5 mph - 0.05 in Rain Rain
3:55 PM 74.8 °F 69.1 °F 82% 29.94 in 7.0 mi East 3.5 mph - 0.06 in Rain Light Rain
4:15 PM 75.4 °F 69.1 °F 81% 29.94 in 5.0 mi ENE 5.8 mph - N/A   Haze
4:35 PM 76.3 °F 70.0 °F 81% 29.93 in 5.0 mi East 8.1 mph - N/A   Haze
4:55 PM 77.2 °F 70.0 °F 78% 29.93 in 5.0 mi East 6.9 mph - N/A   Haze
5:15 PM 77.0 °F 69.4 °F 77% 29.92 in 5.0 mi East 6.9 mph - N/A   Haze
5:35 PM 77.0 °F 69.3 °F 77% 29.93 in 7.0 mi East 5.8 mph - N/A   Clear
5:55 PM 76.5 °F 69.1 °F 78% 29.93 in 7.0 mi ESE 4.6 mph - N/A   Clear
6:15 PM 76.1 °F 67.1 °F 74% 29.93 in 10.0 mi ESE 5.8 mph - N/A   Clear
6:35 PM 74.7 °F 66.7 °F 76% 29.93 in 7.0 mi SE 6.9 mph - N/A   Clear
6:55 PM 73.4 °F 66.2 °F 78% 29.93 in 10.0 mi ESE 4.6 mph - N/A   Clear
7:15 PM 72.0 °F 66.2 °F 82% 29.95 in 7.0 mi SSE 5.8 mph - N/A   Clear
7:35 PM 72.0 °F 66.6 °F 83% 29.95 in 7.0 mi SSE 9.2 mph - N/A   Clear
7:55 PM 71.6 °F 66.6 °F 84% 29.96 in 7.0 mi SSE 10.4 mph - N/A   Clear
8:15 PM 71.1 °F 66.6 °F 86% 29.96 in 7.0 mi SSE 9.2 mph - N/A   Clear
8:35 PM 70.7 °F 66.6 °F 87% 29.98 in 7.0 mi SSE 8.1 mph - N/A   Clear
8:55 PM 70.7 °F 66.6 °F 87% 29.98 in 7.0 mi SSE 10.4 mph - N/A   Clear
9:15 PM 70.7 °F 67.1 °F 88% 29.98 in 5.0 mi SSE 9.2 mph - N/A   Clear
9:40 PM 70.3 °F 67.1 °F 89% 29.99 in 5.0 mi Calm Calm - N/A   Scattered Clouds
9:55 PM 70.7 °F 67.1 °F 88% 29.99 in 7.0 mi Calm Calm - N/A   Mostly Cloudy
10:15 PM 70.7 °F 67.3 °F 89% 29.98 in 7.0 mi SE 3.5 mph - N/A   Overcast
10:35 PM 70.5 °F 67.1 °F 89% 29.98 in 5.0 mi SE 3.5 mph - N/A   Overcast
10:55 PM 69.8 °F 66.6 °F 89% 29.98 in 5.0 mi Calm Calm - N/A   Overcast
11:15 PM 70.3 °F 67.5 °F 91% 29.98 in 5.0 mi ESE 4.6 mph - N/A   Overcast
11:35 PM 70.7 °F 67.5 °F 89% 29.98 in 5.0 mi Calm Calm - N/A   Overcast
11:55 PM 70.7 °F 67.8 °F 91% 29.98 in 7.0 mi SE 3.5 mph - N/A   Overcast